User: anonymous   Login
Location: Unspecified
(0.0000°N, 0.0000°E)
Time: 03:46:32
(UTC+00:00)
Language:

STPSAT 2 (USA 217) - Orbit

View from above orbital plane
View from above orbital plane
View from above satellite
View from above satellite

Ground track
Ground track

The orbit data is extracted from the following two-line orbital elements,

1 37222U 10062A   17265.11734218 0.00000100  00000-0  13729-4 0    03
2 37222  71.9651  26.7512 0010000  84.8256 275.1743 14.78306894    03
Epoch (UTC): 22 September 2017 02:48:58
Eccentricity: 0.0010000
inclination: 71.9651°
perigee height: 627 km
apogee height: 641 km
right ascension of ascending node: 26.7512°
argument of perigee: 84.8256°
revolutions per day: 14.78306894
mean anomaly at epoch: 275.1743°
orbit number at epoch: 0

The dashed part of the orbit path shows where the satellite is in the earth's shadow,  

DLR